Dewpoint
56 56 56 56 56 56 56 56 56 56 56 56 56 56 57 56 56 56 55 55 55 55 55 54 55 55 55 56 56 56 56 51 49 46 46 39 60 65 62 61 64 64 63 50 53 56 52 50 50 53 56 57 57 56 58 58 58 60 58 56 61 58 58 60 60 61 61 62 63 65 65 63 62 65 65 66 62 63 62 61 57 56 52 52 55 57 58 59
56 56 56 56 56 56 56 55 55 56 56 56 56 56 56 56 56 55 55 55 55 55 55 55 55 55 56 56 56 56 54 51 47 43 35 52 67 66 60 64 62 60 64 46 52 53 49 46 46 52 55 55 56 56 57 56 57 59 57 59 57 56 57 62 62 62 62 62 65 66 66 65 64 65 64 61 61 62 61 60 58 55 53 55 56 57 59 60
55 55 55 55 55 56 55 55 55 56 56 56 56 56 56 56 55 55 55 55 55 55 55 55 55 55 56 56 57 57 54 49 47 43 38 69 63 64 66 66 64 63 57 46 53 51 48 43 43 50 54 53 53 54 55 56 55 59 56 54 56 60 60 64 65 64 65 65 65 65 66 64 64 63 65 62 61 62 60 57 56 54 54 55 56 57 58 59
55 55 55 56 56 56 55 55 55 55 55 55 55 55 56 55 55 55 55 55 55 55 55 55 55 56 56 56 57 55 51 49 39 43 57 72 68 66 65 65 64 63 52 46 51 50 46 41 39 48 52 51 51 54 53 55 54 57 56 54 59 60 60 63 65 65 66 66 65 65 63 63 62 62 63 61 59 60 60 58 57 55 55 55 56 57 58 58
55 55 56 56 56 56 56 56 55 55 55 56 55 55 55 56 55 55 55 55 55 55 55 55 55 56 56 56 57 53 50 28 27 49 63 68 66 65 64 63 65 49 44 45 48 49 46 39 36 44 49 48 51 53 53 54 55 55 54 56 62 62 60 64 64 65 66 66 66 64 63 63 63 64 60 59 56 55 57 58 59 55 55 55 56 56 57 57
55 55 55 55 55 55 55 56 55 55 56 56 55 56 56 55 55 55 55 55 55 55 55 55 55 56 56 57 54 50 43 12 31 51 71 64 64 65 62 63 65 53 43 43 44 47 45 38 36 42 45 47 50 52 52 52 55 54 54 61 61 60 62 65 62 65 66 65 64 63 64 62 62 62 61 58 57 58 59 57 58 56 55 55 55 55 55 56
55 55 55 55 55 55 55 55 55 56 56 55 55 55 55 55 55 55 55 55 55 55 55 55 56 56 56 57 52 47 38 24 33 59 70 70 64 65 64 62 64 56 46 39 39 44 43 36 36 40 42 46 51 51 51 51 53 54 54 62 61 62 62 64 61 63 64 64 64 65 63 60 62 59 64 63 61 61 59 58 56 56 55 55 53 53 53 55
55 55 55 55 55 55 55 55 55 55 55 55 55 55 55 55 55 55 55 54 55 55 55 55 56 56 57 50 45 48 38 2 36 60 71 68 62 57 59 44 45 51 48 37 37 42 38 34 33 39 41 44 49 51 51 50 49 51 55 59 61 62 65 62 61 61 64 66 65 63 62 62 63 63 65 64 62 60 59 57 56 55 54 53 53 53 54 55
55 55 55 55 55 55 55 55 55 55 55 55 55 55 55 54 54 54 54 54 55 55 55 56 56 56 57 54 40 31 20 35 43 53 62 61 46 42 36 31 33 43 44 35 35 39 37 32 32 36 37 44 48 51 50 48 46 49 54 57 62 59 64 62 61 63 67 65 67 66 63 64 64 66 64 64 62 59 57 56 55 54 53 53 53 53 54 54
55 55 55 55 55 55 55 55 55 55 55 55 55 55 54 54 54 54 54 54 55 55 55 56 56 57 54 50 42 28 36 40 46 48 53 53 39 34 30 25 24 39 38 30 26 30 33 30 30 36 41 46 49 50 48 46 43 46 54 56 60 59 61 63 65 65 66 65 67 63 64 63 65 64 61 65 61 59 58 55 56 55 54 53 53 53 54 53
55 55 55 55 55 55 55 55 55 55 55 55 55 54 54 54 54 54 54 55 55 55 56 56 57 56 51 42 33 21 33 34 45 46 43 40 35 33 32 30 29 35 35 30 26 27 29 29 29 35 43 42 48 48 46 40 42 48 55 57 57 58 59 60 63 64 66 64 66 65 62 64 66 63 60 62 61 60 56 54 54 54 54 54 53 54 55 54
55 55 55 55 55 55 55 55 55 55 55 55 54 54 54 54 54 54 54 54 55 55 56 57 57 55 50 45 31 19 28 33 44 45 43 37 35 33 32 28 26 31 34 31 28 26 29 28 30 34 38 46 46 48 45 41 40 51 56 54 61 60 59 62 62 64 65 64 65 65 62 63 62 62 63 63 62 61 56 54 54 53 54 54 55 54 56 55
55 55 55 55 55 55 56 55 55 55 55 54 54 54 54 54 54 54 54 54 55 56 57 58 58 53 49 39 27 17 28 32 41 40 33 30 27 28 29 28 28 31 33 32 28 28 28 28 30 32 38 41 46 44 38 41 36 47 52 61 57 60 61 63 65 65 63 64 66 66 53 57 61 64 65 63 61 60 56 54 53 53 53 54 54 54 54 55
55 55 55 55 55 55 55 55 55 55 54 54 55 54 54 53 53 54 54 55 56 56 57 57 55 54 49 38 20 24 33 39 38 34 30 24 22 24 31 31 35 34 32 30 28 27 29 29 30 30 33 39 43 45 41 38 37 38 47 56 57 55 56 64 65 65 63 67 67 66 55 57 62 64 64 63 61 58 55 54 53 52 53 53 53 53 54 53
56 56 55 55 55 55 55 55 55 55 55 54 54 53 53 53 53 54 55 55 56 57 58 59 55 52 48 21 17 34 54 42 32 31 30 26 21 21 24 28 30 32 31 30 27 28 28 27 26 27 30 39 43 42 39 36 36 37 43 49 51 49 56 63 65 65 61 64 67 63 56 57 61 63 65 64 62 59 57 54 53 52 52 52 52 52 52 53
56 56 55 55 55 55 55 55 55 55 54 54 53 53 53 54 54 54 56 57 58 58 55 56 55 49 39 19 33 46 40 39 33 31 31 29 25 21 21 24 27 29 29 28 27 25 24 24 20 22 28 41 43 41 36 33 33 37 41 45 46 51 55 60 62 64 63 61 65 64 56 61 62 64 64 65 63 61 57 55 55 53 54 51 51 51 53 52
56 56 55 55 55 55 55 55 55 55 54 53 53 54 54 54 54 56 57 58 57 55 55 52 42 42 37 25 31 36 37 38 37 31 30 29 31 22 19 19 18 22 23 24 24 24 21 20 21 21 21 34 40 40 37 32 34 36 42 44 46 47 52 49 57 60 64 61 61 62 60 60 63 65 63 66 65 64 59 57 54 55 54 52 51 51 53 53
55 55 55 55 55 55 55 55 55 54 53 53 53 55 54 56 56 56 56 57 57 53 52 51 48 38 14 17 23 30 33 36 39 34 33 33 30 26 20 14 15 17 17 19 21 20 19 16 17 19 24 34 39 38 35 29 32 35 39 41 43 50 49 52 56 58 60 61 59 60 59 60 62 64 63 65 66 64 60 59 54 52 54 53 51 51 53 54
55 55 55 55 55 55 54 54 54 54 53 54 55 56 57 57 56 54 53 53 50 50 45 39 41 28 18 25 27 29 30 38 40 37 35 34 31 29 25 23 15 12 11 14 17 18 17 12 17 20 23 33 37 37 35 31 32 34 36 37 39 54 50 53 54 58 57 57 57 58 57 59 61 63 64 64 65 64 61 61 58 54 54 54 53 51 53 55
55 56 55 55 55 55 54 54 54 53 53 53 53 56 54 53 49 46 51 48 43 25 22 22 25 27 24 21 26 32 33 36 37 37 35 34 31 28 26 24 15 8 7 7 15 15 14 10 14 15 19 28 34 35 33 29 28 29 32 34 35 41 54 50 54 55 57 56 56 56 58 59 62 63 64 64 64 64 60 60 61 57 55 55 53 51 53 55
55 55 55 55 55 54 54 54 54 53 52 51 50 50 33 30 28 27 31 33 20 23 24 25 25 26 25 24 23 25 30 30 34 35 34 34 32 23 22 23 17 4 4 4 12 15 14 10 11 12 15 26 32 35 34 32 31 28 32 34 36 38 50 47 54 53 58 57 59 57 56 59 62 64 65 65 64 63 61 60 61 58 55 55 55 54 55 55
55 55 55 55 54 54 54 53 53 52 51 52 52 46 30 32 35 35 35 26 22 25 27 26 27 26 26 26 26 30 32 31 29 34 34 32 27 21 20 21 18 8 4 0 11 15 15 8 9 12 16 29 34 34 33 32 31 29 28 32 33 34 41 52 52 50 56 56 60 55 56 56 60 62 65 65 65 64 64 61 61 60 58 58 56 56 55 56
55 55 55 55 54 54 53 52 52 50 53 50 46 40 31 34 35 39 37 32 21 25 25 24 24 25 26 27 27 30 29 29 29 31 32 31 25 21 17 15 17 12 3 -2 8 15 14 10 9 12 16 28 33 34 31 33 32 27 27 29 29 32 38 40 56 53 57 57 60 57 51 59 61 62 64 64 65 65 65 66 64 63 60 58 56 55 56 56
55 55 55 54 54 53 53 52 50 51 49 44 36 33 34 35 36 37 35 32 22 21 21 22 25 25 25 27 22 29 29 27 28 29 33 30 26 23 22 15 13 12 3 0 7 11 9 9 9 13 16 22 27 30 33 32 29 26 25 22 20 34 34 32 43 50 57 47 58 56 56 59 60 62 62 65 66 66 65 66 65 65 67 61 58 57 56 57
55 55 55 54 53 53 51 49 49 43 40 41 37 35 35 38 41 38 36 30 20 20 22 24 24 26 28 29 26 27 26 25 22 30 31 30 27 21 20 17 15 10 10 7 4 4 5 13 10 13 16 32 35 34 33 32 27 24 25 22 23 25 33 36 42 47 47 50 44 48 45 52 59 59 59 63 65 64 65 63 64 63 64 62 58 56 57 58
55 55 54 54 53 52 50 45 40 31 31 32 33 34 35 35 38 42 37 34 16 13 21 17 21 18 22 27 30 29 23 20 24 28 29 27 33 27 24 21 17 12 11 10 4 3 1 18 26 19 31 34 34 33 32 32 25 22 20 24 24 24 31 36 37 40 41 41 44 45 45 47 57 57 59 62 64 63 64 64 64 64 65 64 60 58 56 55
55 55 54 54 53 52 51 35 38 30 31 32 32 33 33 35 51 41 36 27 16 12 15 15 16 16 16 23 21 23 23 22 25 27 24 29 27 28 23 18 17 20 16 10 11 1 5 24 25 30 32 33 33 30 31 30 27 23 24 20 23 24 25 33 33 36 37 37 40 45 44 44 51 55 58 60 61 62 62 62 64 62 64 64 61 58 58 56
55 54 54 53 52 52 49 49 38 32 28 31 32 33 35 46 48 42 31 20 10 13 11 12 13 15 14 20 20 20 26 25 27 27 28 27 30 24 24 22 17 17 20 15 8 5 5 25 25 24 25 24 25 29 31 29 25 22 22 22 20 23 24 26 31 30 31 34 38 39 43 45 45 55 56 60 59 61 61 62 63 63 63 65 63 61 60 58
54 54 53 53 52 51 51 48 42 34 31 31 33 33 36 47 42 36 29 12 9 9 15 12 15 13 12 12 15 19 24 22 18 28 30 29 28 30 22 22 19 17 20 18 9 13 13 22 22 22 21 20 23 27 28 28 28 28 26 24 23 22 23 22 30 31 33 35 37 38 42 44 45 57 57 58 58 58 60 62 62 63 63 63 64 63 61 58
54 54 53 52 51 51 49 49 44 33 33 34 35 39 38 40 39 29 24 12 13 8 12 9 11 8 9 9 15 11 15 17 27 27 29 28 27 27 27 27 20 24 21 20 17 15 19 26 30 19 20 21 23 24 26 28 28 27 26 25 24 23 23 24 25 34 35 34 37 37 38 42 44 48 57 57 57 57 58 60 62 62 64 64 64 64 62 59
53 53 52 52 51 46 44 39 36 34 37 42 39 36 39 38 32 26 11 9 13 8 12 10 8 8 8 7 10 11 8 13 21 26 27 28 25 22 25 24 22 21 20 19 13 18 23 24 25 22 21 19 17 22 24 22 29 28 26 25 25 26 27 28 28 32 33 35 37 36 36 40 40 46 50 56 56 55 55 59 59 60 62 63 64 66 63 61
52 51 52 52 51 52 34 31 40 41 43 42 38 36 35 31 31 11 8 8 13 9 7 7 9 7 7 7 8 11 9 10 14 18 23 22 24 20 19 19 21 18 18 17 11 21 22 23 22 21 27 24 21 18 17 25 26 26 26 28 21 24 25 27 30 28 30 34 38 36 35 37 39 45 50 52 52 52 56 57 57 60 61 62 61 62 64 64
51 51 50 51 52 49 39 37 46 49 46 40 39 35 33 30 19 14 8 8 10 11 8 9 9 8 6 8 8 11 9 10 12 11 19 23 23 22 22 21 23 19 19 15 12 14 15 19 19 17 19 26 25 20 19 20 21 22 25 26 25 24 23 25 25 29 30 31 34 36 37 36 45 48 54 54 54 53 55 58 58 59 60 60 61 63 64 67
51 50 52 52 51 48 41 52 49 48 39 41 38 34 30 22 13 15 9 9 9 11 11 9 9 8 9 8 7 8 10 12 12 14 13 21 18 21 20 20 21 21 21 20 12 8 13 16 17 17 17 21 23 20 15 14 13 15 18 19 23 24 22 25 25 24 24 29 33 38 40 40 39 50 53 58 57 55 55 60 60 58 59 60 61 63 63 65
49 50 53 56 51 48 45 44 48 47 44 34 32 29 23 16 12 10 13 10 9 11 9 8 11 10 9 9 11 11 15 15 15 12 12 20 20 20 17 17 21 19 20 16 17 15 11 13 16 18 18 19 17 17 18 15 12 10 11 16 19 20 23 21 23 21 20 20 26 32 35 40 45 54 57 56 57 57 53 63 60 59 58 60 63 63 62 63
50 51 53 51 42 44 43 43 47 46 41 33 29 23 16 18 13 11 10 13 12 10 9 9 11 10 7 10 11 10 13 18 15 17 18 19 18 19 20 20 17 18 18 17 20 15 14 12 15 17 16 18 16 15 15 17 15 12 9 10 14 18 16 22 24 23 25 24 26 31 34 36 51 50 51 53 56 52 52 53 56 58 56 60 62 62 62 63
53 43 44 37 34 35 42 44 42 44 41 34 30 18 18 13 13 13 20 12 12 11 11 12 11 9 11 13 13 13 17 17 17 18 18 19 16 16 18 18 20 19 18 20 20 19 18 13 18 18 17 19 19 15 13 16 18 14 11 9 11 13 13 19 16 25 22 23 29 26 29 34 39 47 50 52 49 55 47 51 54 58 62 59 60 62 62 62
40 35 37 33 35 37 43 47 44 42 35 30 22 26 15 15 11 13 12 13 12 11 11 12 13 10 9 9 11 13 16 16 18 19 20 18 16 20 16 15 18 18 19 20 21 21 20 19 15 17 17 17 18 16 13 13 15 15 13 11 7 11 13 18 18 17 20 22 28 28 28 30 36 45 46 49 44 52 56 51 51 56 62 62 60 62 63 64
48 34 30 32 33 33 38 50 44 39 34 29 20 22 8 14 10 12 14 13 11 10 13 11 14 11 12 10 14 10 12 12 18 18 22 20 15 19 16 18 15 17 18 19 17 18 20 19 19 17 16 15 16 16 15 11 13 13 15 13 12 13 13 14 17 23 25 27 22 27 29 28 34 46 46 52 53 56 55 53 56 57 60 64 62 62 63 63
39 34 30 32 33 37 51 44 37 34 30 22 18 16 15 14 12 14 13 14 13 15 16 15 11 13 11 13 11 10 12 11 13 15 15 19 13 16 15 17 17 16 17 18 17 19 20 25 21 16 17 16 17 15 10 13 12 12 14 16 14 13 8 12 12 16 20 26 25 23 22 34 54 59 56 56 57 57 56 58 63 61 61 60 62 63 65 64
34 32 30 33 30 40 40 35 29 27 20 19 17 15 14 14 13 14 15 10 14 13 12 16 14 14 16 15 12 12 14 14 13 12 10 15 12 17 17 18 19 18 17 16 16 19 24 23 21 18 17 16 15 15 10 10 12 9 9 14 13 12 14 15 15 11 11 15 19 22 25 47 53 58 60 59 58 59 58 58 59 63 62 63 62 63 64 65
37 25 28 32 32 34 32 28 22 19 16 14 13 14 17 23 14 13 14 13 13 12 12 16 16 15 16 14 14 14 15 11 10 11 11 9 14 14 17 19 19 18 17 16 17 18 24 25 24 21 18 19 21 16 12 6 19 17 9 6 11 13 13 15 15 15 11 8 9 17 23 46 54 55 58 58 57 58 58 58 59 61 65 63 62 63 65 66
29 28 33 33 34 32 30 26 26 19 16 15 13 9 9 13 11 3 9 12 11 10 13 14 17 18 16 18 18 13 15 12 15 9 11 13 16 18 19 18 19 18 16 13 15 22 31 24 25 24 26 21 21 20 21 18 17 18 14 10 7 7 10 14 14 18 18 17 12 12 24 40 52 58 60 60 62 61 62 60 61 62 65 66 64 63 66 67
30 27 29 30 33 30 27 25 17 16 16 13 15 12 8 12 13 14 15 13 15 17 17 15 15 15 21 18 18 20 18 20 17 15 15 16 17 20 18 19 17 16 18 23 23 25 21 29 27 27 24 27 22 22 19 18 17 14 12 13 9 11 12 12 13 19 18 15 11 12 16 44 56 57 57 58 59 59 59 59 61 62 64 64 65 65 65 66
31 28 27 26 29 26 23 21 14 14 16 15 13 12 10 10 11 12 15 17 15 17 18 18 18 17 18 17 20 18 19 16 24 18 17 17 19 19 19 19 18 18 22 25 39 22 22 26 30 25 25 24 25 22 20 20 16 16 17 16 18 16 24 25 18 25 22 31 30 22 19 55 56 57 57 58 58 59 58 58 59 62 63 63 65 65 66 67
27 28 19 23 21 21 22 23 18 13 16 18 15 13 9 11 12 11 10 15 15 19 17 19 17 17 18 18 22 21 21 18 18 25 21 20 20 19 19 20 19 19 32 40 40 27 23 26 30 32 31 25 27 34 26 25 19 13 14 21 26 25 23 25 24 25 23 26 27 32 35 42 52 54 55 56 58 57 59 61 58 60 62 64 66 65 65 67
36 24 22 20 21 18 17 14 12 11 15 14 22 13 12 13 10 12 6 11 17 17 19 18 18 17 21 17 22 20 18 21 22 24 25 24 24 21 20 20 18 28 41 34 38 22 28 24 25 31 30 30 26 29 25 23 24 24 25 25 26 26 26 28 27 26 42 32 24 33 49 35 43 50 53 56 58 57 58 60 60 61 61 62 64 65 66 65
30 26 28 35 23 20 19 16 15 10 16 11 19 13 15 13 13 19 14 9 9 18 13 23 16 16 21 21 22 26 26 27 27 30 24 24 23 22 20 20 19 29 29 20 21 25 25 23 22 22 21 23 24 25 25 23 23 27 27 26 28 29 27 28 31 28 31 29 25 46 50 42 36 43 49 55 56 57 57 58 60 62 62 63 64 64 65 65
29 34 26 27 21 20 21 17 17 15 15 12 21 15 16 14 16 13 12 14 11 20 13 25 24 19 18 20 20 30 31 29 29 32 33 31 26 25 31 26 22 21 20 21 24 32 29 21 21 21 23 22 22 24 24 22 22 23 23 24 26 28 32 34 32 30 35 39 38 35 47 47 56 54 51 54 56 57 59 61 62 61 61 63 63 63 63 64
31 43 30 28 24 28 26 23 19 17 15 24 24 17 17 17 15 14 12 10 21 22 17 19 23 21 19 20 28 25 29 27 31 33 30 29 27 28 29 27 24 26 23 23 23 36 27 26 25 22 25 24 23 23 24 24 24 24 22 22 24 26 29 37 37 38 44 40 36 35 38 49 53 58 57 56 58 59 59 58 60 61 61 61 62 63 63 64
47 51 52 47 24 24 28 20 20 21 20 23 19 21 17 15 16 16 18 12 20 26 17 21 22 22 19 23 25 26 25 28 29 26 26 25 26 27 28 33 24 25 27 27 28 27 26 25 25 25 23 22 22 23 23 23 22 24 25 24 24 25 27 34 40 42 42 40 34 32 35 47 56 57 56 58 57 59 58 59 60 61 60 61 61 62 62 64
50 51 49 43 35 39 26 22 22 21 18 20 19 20 19 18 17 14 22 18 16 21 21 20 22 22 26 20 27 25 22 21 21 22 24 21 19 18 17 20 20 24 24 25 28 24 30 29 26 23 22 20 20 21 22 22 23 23 23 23 25 34 35 36 41 43 44 43 43 42 34 53 57 56 57 56 57 58 58 57 59 61 61 60 61 61 61 62